{"data":{"norad_id":67127,"epoch":"2026-09-20T01:03:15.916608Z","epoch_age_seconds":118418,"freshness":"FRESH","line1":"1 67127U 25299AB  26263.04393422  .00011102  00000+0  41221-3 0  9993","line2":"2 67127  42.9997 151.0782 0001383 278.3975  81.6720 15.27591629 42844","mean_motion":15.27591629,"eccentricity":0.0001383,"inclination_deg":42.9997,"raan_deg":151.0782,"arg_perigee_deg":278.3975,"mean_anomaly_deg":81.672,"bstar":0.00041221,"rev_number":4284,"period_min":94.266031095147,"perigee_km":482.06537762973,"apogee_km":483.96317207236,"semimajor_km":6861.151274851,"source":"CELESTRAK","updated_at":"2026-09-21T09:00:36.108994Z"}}